Regional Weather Roundup
Issued by NWS Burlington, VT

Home | Current Version | Previous Version | Text Only | Print | Product List | Glossary On
Versions: 1 2 3 4 5 6 7 8 9 10 11 12 13 14 15 16 17 18 19 20 21 22 23 24 25 26 27 28 29 30 31 32 33 34 35 36 37 38 39 40 41 42 43 44 45 46 47 48 49 50
000
ASUS41 KBTV 011310
RWRBTV
VERMONT REGIONAL WEATHER ROUNDUP
NATIONAL WEATHER SERVICE BURLINGTON VT
900 AM EDT WED OCT 01 2014

NOTE: "FAIR" INDICATES FEW OR NO CLOUDS BELOW 12,000 FEET WITH NO
SIGNIFICANT WEATHER AND/OR OBSTRUCTIONS TO VISIBILITY.

* THESE REPORTS ARE NOT UNDER NWS QUALITY CONTROL AND/OR DO NOT
  REPORT WEATHER SUCH AS PRECIPITATION AND FOG.

VTZ001>019-011400-
_____VERMONT_____


CITY           SKY/WX    TMP DP  RH WIND       PRES   REMARKS
BURLINGTON     CLOUDY    54  52  93 NW5       30.14R
MONTPELIER     CLOUDY    55  54  96 NE3       30.17R
MORRISVILLE    CLOUDY    54  52  93 CALM      30.15S FOG
ST. JOHNSBURY*   N/A     56  53  90 MISG      30.12R
MIDDLEBURY*    CLOUDY    55  55 100 N7        30.12R FOG
RUTLAND*       CLOUDY    57  52  82 SE8       30.11R
SPRINGFIELD    LGT RAIN  56  54  93 CALM      30.12R
HIGHGATE*      FOG       50  49  99 N3        30.15S VSB 1/4
NEWPORT*       CLOUDY   N/A N/A N/A CALM      30.15R
BENNINGTON     LGT RAIN  58  55  90 VRB3      30.09R

_____LAKE CHAMPLAIN_____


CITY           SKY/WX    TMP DP  RH WIND       PRES   REMARKS
COLCHESTER RF*   N/A     54  54 100 N10         N/A
DIAMOND ISL*     N/A     54  54 100 N18         N/A

$$

NYZ007-026>031-035-052-083-011400-
_____NORTHERN NEW YORK_____


CITY           SKY/WX    TMP DP  RH WIND       PRES   REMARKS
PLATTSBURGH    CLOUDY    51  50  96 N6        30.15S FOG
SARANAC LAKE   FOG       53  53 100 E5        30.11R VSB 1/2
MASSENA        CLOUDY    54  52  93 E7        30.15R
OGDENSBURG*    CLOUDY    55  54  94 E6        30.13R
POTSDAM*       CLOUDY    54  54 100 E7        30.13R FOG
WATERTOWN      CLOUDY    56  51  84 NE10      30.09R HAZE
FT DRUM        CLOUDY    53  53 100 E5        30.10R FOG
ALBANY         CLOUDY    61  57  87 N3        30.08R
GLENS FALLS    CLOUDY    60  55  83 NE6       30.10R

$$
NHZ002-005-011-011400-
_____NEW HAMPSHIRE_____


CITY           SKY/WX    TMP DP  RH WIND       PRES   REMARKS
LEBANON        CLOUDY    60  52  74 N5        30.11R
KEENE          CLOUDY    57  48  72 N8        30.10R
MT WASHINGTON  CLOUDY    43  41  93 E16         N/A
PLYMOUTH       CLOUDY    57  57  99 CALM      30.11S
WHITEFIELD     CLOUDY    55  51  86 CALM      30.13R

$$

_____REGIONAL QUEBEC LOCATIONS_____


CITY           SKY/WX    TMP DP  RH WIND       PRES   REMARKS
MONTREAL       CLOUDY    54  48  82 NE15      30.17R
QUEBEC CITY    PTSUNNY   50  43  76 NE13G20   30.22R
SHERBROOKE     CLOUDY    50  48  93 E3        30.16R

_____REGIONAL ONTARIO LOCATIONS_____


CITY           SKY/WX    TMP DP  RH WIND       PRES   REMARKS
OTTAWA         CLOUDY    54  52  94 E8        30.16R

______KEY______
VSB  - VISIBILITY IN MILES
WCI  - WIND CHILL INDEX
HX   - HEAT INDEX
$$



USA.gov is the U.S. government's official web portal to all federal, state and local government web resources and services.